"FRM_AIS_EDR_2032.DAT           ",2005-08-14T17:08:48.88 ,"1/0072119323.48221",    0,    0,  274896,"AIS","B1","B1","B0","B0","PISd",0,0,0,0,"B1", 0,15,   0, 0,    0,"AIS","N/A    ","OK ","OK ",    001174.730,    -060.091,    -102.741,    0015.183,    0047.880
"FRM_AIS_EDR_2032.DAT           ",2005-08-14T17:08:56.42 ,"1/0072119331.18284",    0,    1,  274896,"AIS","B1","B1","B0","B0","PISd",0,0,0,0,"B1", 0,15,   0, 0,    0,"AIS","N/A    ","OK ","OK ",    001164.350,    -059.765,    -102.694,    0015.188,    0047.776
"FRM_AIS_EDR_2032.DAT           ",2005-08-14T17:09:03.96 ,"1/0072119338.53884",    0,    2,  274896,"AIS","B1","B1","B0","B0","PISd",0,0,0,0,"B1", 0,15,   0, 0,    0,"AIS","N/A    ","OK ","OK ",    001154.002,    -059.437,    -102.648,    0015.193,    0047.674
"FRM_AIS_EDR_2032.DAT           ",2005-08-14T17:09:11.50 ,"1/0072119346.23947",    0,    3,  274896,"AIS","B1","B1","B0","B0","PISd",0,0,0,0,"B1", 0,15,   0, 0,    0,"AIS","N/A    ","OK ","OK ",    001143.686,    -059.108,    -102.604,    0015.198,    0047.572
"FRM_AIS_EDR_2032.DAT           ",2005-08-14T17:09:19.05 ,"1/0072119353.59546",    0,    4,  274896,"AIS","B1","B1","B0","B0","PISd",0,0,0,0,"B1", 0,15,   0, 0,    0,"AIS","N/A    ","OK ","OK ",    001133.401,    -058.777,    -102.560,    0015.203,    0047.472
"FRM_AIS_EDR_2032.DAT           ",2005-08-14T17:09:26.59 ,"1/0072119361.29609",    0,    5,  274896,"AIS","B1","B1","B0","B0","PISd",0,0,0,0,"B1", 0,15,   0, 0,    0,"AIS","N/A    ","OK ","OK ",    001123.150,    -058.445,    -102.518,    0015.208,    0047.373
"FRM_AIS_EDR_2032.DAT           ",2005-08-14T17:09:34.13 ,"1/0072119368.65209",    0,    6,  274896,"AIS","B1","B1","B0","B0","PISd",0,0,0,0,"B1", 0,15,   0, 0,    0,"AIS","N/A    ","OK ","OK ",    001112.932,    -058.111,    -102.476,    0015.213,    0047.275
"FRM_AIS_EDR_2032.DAT           ",2005-08-14T17:09:41.68 ,"1/0072119376.35272",    0,    7,  274896,"AIS","B1","B1","B0","B0","PISd",0,0,0,0,"B1", 0,15,   0, 0,    0,"AIS","N/A    ","OK ","OK ",    001102.748,    -057.775,    -102.436,    0015.217,    0047.178
"FRM_AIS_EDR_2032.DAT           ",2005-08-14T17:09:49.22 ,"1/0072119384.05335",    0,    8,  274896,"AIS","B1","B1","B0","B0","PISd",0,0,0,0,"B1", 0,15,   0, 0,    0,"AIS","N/A    ","OK ","OK ",    001092.598,    -057.438,    -102.397,    0015.222,    0047.082
"FRM_AIS_EDR_2032.DAT           ",2005-08-14T17:09:56.76 ,"1/0072119391.40935",    0,    9,  274896,"AIS","B1","B1","B0","B0","PISd",0,0,0,0,"B1", 0,15,   0, 0,    0,"AIS","N/A    ","OK ","OK ",    001082.484,    -057.100,    -102.358,    0015.227,    0046.988
"FRM_AIS_EDR_2032.DAT           ",2005-08-14T17:10:04.31 ,"1/0072119399.10998",    0,   10,  274896,"AIS","B1","B1","B0","B0","PISd",0,0,0,0,"B1", 0,15,   0, 0,    0,"AIS","N/A    ","OK ","OK ",    001072.404,    -056.759,    -102.321,    0015.231,    0046.895
"FRM_AIS_EDR_2032.DAT           ",2005-08-14T17:10:11.85 ,"1/0072119406.46597",    0,   11,  274896,"AIS","B1","B1","B0","B0","PISd",0,0,0,0,"B1", 0,15,   0, 0,    0,"AIS","N/A    ","OK ","OK ",    001062.361,    -056.418,    -102.284,    0015.236,    0046.803
"FRM_AIS_EDR_2032.DAT           ",2005-08-14T17:10:19.39 ,"1/0072119414.16661",    0,   12,  274896,"AIS","B1","B1","B0","B0","PISd",0,0,0,0,"B1", 0,15,   0, 0,    0,"AIS","N/A    ","OK ","OK ",    001052.353,    -056.074,    -102.249,    0015.240,    0046.712
"FRM_AIS_EDR_2032.DAT           ",2005-08-14T17:10:26.94 ,"1/0072119421.52260",    0,   13,  274896,"AIS","B1","B1","B0","B0","PISd",0,0,0,0,"B1", 0,15,   0, 0,    0,"AIS","N/A    ","OK ","OK ",    001042.383,    -055.730,    -102.214,    0015.244,    0046.623
"FRM_AIS_EDR_2032.DAT           ",2005-08-14T17:10:34.48 ,"1/0072119429.22323",    0,   14,  274896,"AIS","B1","B1","B0","B0","PISd",0,0,0,0,"B1", 0,15,   0, 0,    0,"AIS","N/A    ","OK ","OK ",    001032.451,    -055.383,    -102.180,    0015.249,    0046.536
"FRM_AIS_EDR_2032.DAT           ",2005-08-14T17:10:42.02 ,"1/0072119436.57923",    0,   15,  274896,"AIS","B1","B1","B0","B0","PISd",0,0,0,0,"B1", 0,15,   0, 0,    0,"AIS","N/A    ","OK ","OK ",    001022.556,    -055.035,    -102.147,    0015.253,    0046.450
"FRM_AIS_EDR_2032.DAT           ",2005-08-14T17:10:49.57 ,"1/0072119444.27986",    0,   16,  274896,"AIS","B1","B1","B0","B0","PISd",0,0,0,0,"B1", 0,15,   0, 0,    0,"AIS","N/A    ","OK ","OK ",    001012.700,    -054.686,    -102.115,    0015.257,    0046.365
"FRM_AIS_EDR_2032.DAT           ",2005-08-14T17:10:57.11 ,"1/0072119451.63585",    0,   17,  274896,"AIS","B1","B1","B0","B0","PISd",0,0,0,0,"B1", 0,15,   0, 0,    0,"AIS","N/A    ","OK ","OK ",    001002.884,    -054.335,    -102.083,    0015.261,    0046.282
"FRM_AIS_EDR_2032.DAT           ",2005-08-14T17:11:04.65 ,"1/0072119459.33649",    0,   18,  274896,"AIS","B1","B1","B0","B0","PISd",0,0,0,0,"B1", 0,15,   0, 0,    0,"AIS","N/A    ","OK ","OK ",    000993.107,    -053.982,    -102.053,    0015.266,    0046.201
"FRM_AIS_EDR_2032.DAT           ",2005-08-14T17:11:12.20 ,"1/0072119467.03712",    0,   19,  274896,"AIS","B1","B1","B0","B0","PISd",0,0,0,0,"B1", 0,15,   0, 0,    0,"AIS","N/A    ","OK ","OK ",    000983.370,    -053.627,    -102.023,    0015.269,    0046.121
"FRM_AIS_EDR_2032.DAT           ",2005-08-14T17:11:19.74 ,"1/0072119474.39311",    0,   20,  274896,"AIS","B1","B1","B0","B0","PISd",0,0,0,0,"B1", 0,15,   0, 0,    0,"AIS","N/A    ","OK ","OK ",    000973.674,    -053.272,    -101.994,    0015.274,    0046.043
"FRM_AIS_EDR_2032.DAT           ",2005-08-14T17:11:27.28 ,"1/0072119482.09375",    0,   21,  274896,"AIS","B1","B1","B0","B0","PISd",0,0,0,0,"B1", 0,15,   0, 0,    0,"AIS","N/A    ","OK ","OK ",    000964.020,    -052.914,    -101.965,    0015.277,    0045.967
"FRM_AIS_EDR_2032.DAT           ",2005-08-14T17:11:34.83 ,"1/0072119489.44974",    0,   22,  274896,"AIS","B1","B1","B0","B0","PISd",0,0,0,0,"B1", 0,15,   0, 0,    0,"AIS","N/A    ","OK ","OK ",    000954.407,    -052.555,    -101.937,    0015.281,    0045.892
"FRM_AIS_EDR_2032.DAT           ",2005-08-14T17:11:42.37 ,"1/0072119497.15037",    0,   23,  274896,"AIS","B1","B1","B0","B0","PISd",0,0,0,0,"B1", 0,15,   0, 0,    0,"AIS","N/A    ","OK ","OK ",    000944.837,    -052.194,    -101.910,    0015.285,    0045.819
"FRM_AIS_EDR_2032.DAT           ",2005-08-14T17:11:49.91 ,"1/0072119504.50637",    0,   24,  274896,"AIS","B1","B1","B0","B0","PISd",0,0,0,0,"B1", 0,15,   0, 0,    0,"AIS","N/A    ","OK ","OK ",    000935.311,    -051.832,    -101.884,    0015.289,    0045.748
"FRM_AIS_EDR_2032.DAT           ",2005-08-14T17:11:57.46 ,"1/0072119512.20700",    0,   25,  274896,"AIS","B1","B1","B0","B0","PISd",0,0,0,0,"B1", 0,15,   0, 0,    0,"AIS","N/A    ","OK ","OK ",    000925.828,    -051.468,    -101.859,    0015.293,    0045.679
"FRM_AIS_EDR_2032.DAT           ",2005-08-14T17:12:05.00 ,"1/0072119519.56299",    0,   26,  274896,"AIS","B1","B1","B0","B0","PISd",0,0,0,0,"B1", 0,15,   0, 0,    0,"AIS","N/A    ","OK ","OK ",    000916.389,    -051.102,    -101.834,    0015.296,    0045.611
"FRM_AIS_EDR_2032.DAT           ",2005-08-14T17:12:12.54 ,"1/0072119527.26363",    0,   27,  274896,"AIS","B1","B1","B0","B0","PISd",0,0,0,0,"B1", 0,15,   0, 0,    0,"AIS","N/A    ","OK ","OK ",    000906.995,    -050.735,    -101.809,    0015.300,    0045.546
"FRM_AIS_EDR_2032.DAT           ",2005-08-14T17:12:20.08 ,"1/0072119534.61962",    0,   28,  274896,"AIS","B1","B1","B0","B0","PISd",0,0,0,0,"B1", 0,15,   0, 0,    0,"AIS","N/A    ","OK ","OK ",    000897.647,    -050.366,    -101.785,    0015.304,    0045.482
"FRM_AIS_EDR_2032.DAT           ",2005-08-14T17:12:27.63 ,"1/0072119542.32025",    0,   29,  274896,"AIS","B1","B1","B0","B0","PISd",0,0,0,0,"B1", 0,15,   0, 0,    0,"AIS","N/A    ","OK ","OK ",    000888.345,    -049.996,    -101.762,    0015.307,    0045.421
"FRM_AIS_EDR_2032.DAT           ",2005-08-14T17:12:35.17 ,"1/0072119550.02089",    0,   30,  274896,"AIS","B1","B1","B0","B0","PISd",0,0,0,0,"B1", 0,15,   0, 0,    0,"AIS","N/A    ","OK ","OK ",    000879.090,    -049.624,    -101.740,    0015.311,    0045.361
"FRM_AIS_EDR_2032.DAT           ",2005-08-14T17:12:42.71 ,"1/0072119557.37688",    0,   31,  274896,"AIS","B1","B1","B0","B0","PISd",0,0,0,0,"B1", 0,15,   0, 0,    0,"AIS","N/A    ","OK ","OK ",    000869.881,    -049.250,    -101.718,    0015.314,    0045.304
"FRM_AIS_EDR_2032.DAT           ",2005-08-14T17:12:50.26 ,"1/0072119565.07751",    0,   32,  274896,"AIS","B1","B1","B0","B0","PISd",0,0,0,0,"B1", 0,15,   0, 0,    0,"AIS","N/A    ","OK ","OK ",    000860.721,    -048.875,    -101.697,    0015.318,    0045.249
"FRM_AIS_EDR_2032.DAT           ",2005-08-14T17:12:57.80 ,"1/0072119572.43350",    0,   33,  274896,"AIS","B1","B1","B0","B0","PISd",0,0,0,0,"B1", 0,15,   0, 0,    0,"AIS","N/A    ","OK ","OK ",    000851.610,    -048.498,    -101.676,    0015.321,    0045.196
"FRM_AIS_EDR_2032.DAT           ",2005-08-14T17:13:05.34 ,"1/0072119580.13414",    0,   34,  274896,"AIS","B1","B1","B0","B0","PISd",0,0,0,0,"B1", 0,15,   0, 0,    0,"AIS","N/A    ","OK ","OK ",    000842.547,    -048.120,    -101.655,    0015.324,    0045.145
"FRM_AIS_EDR_2032.DAT           ",2005-08-14T17:13:12.89 ,"1/0072119587.49013",    0,   35,  274896,"AIS","B1","B1","B0","B0","PISd",0,0,0,0,"B1", 0,15,   0, 0,    0,"AIS","N/A    ","OK ","OK ",    000833.535,    -047.740,    -101.636,    0015.328,    0045.096
"FRM_AIS_EDR_2032.DAT           ",2005-08-14T17:13:20.43 ,"1/0072119595.19076",    0,   36,  274896,"AIS","B1","B1","B0","B0","PISd",0,0,0,0,"B1", 0,15,   0, 0,    0,"AIS","N/A    ","OK ","OK ",    000824.573,    -047.358,    -101.617,    0015.331,    0045.050
"FRM_AIS_EDR_2032.DAT           ",2005-08-14T17:13:27.97 ,"1/0072119602.54676",    0,   37,  274896,"AIS","B1","B1","B0","B0","PISd",0,0,0,0,"B1", 0,15,   0, 0,    0,"AIS","N/A    ","OK ","OK ",    000815.662,    -046.975,    -101.598,    0015.334,    0045.006
"FRM_AIS_EDR_2032.DAT           ",2005-08-14T17:13:35.52 ,"1/0072119610.24739",    0,   38,  274896,"AIS","B1","B1","B0","B0","PISd",0,0,0,0,"B1", 0,15,   0, 0,    0,"AIS","N/A    ","OK ","OK ",    000806.802,    -046.590,    -101.580,    0015.338,    0044.965
"FRM_AIS_EDR_2032.DAT           ",2005-08-14T17:13:43.06 ,"1/0072119617.60338",    0,   39,  274896,"AIS","B1","B1","B0","B0","PISd",0,0,0,0,"B1", 0,15,   0, 0,    0,"AIS","N/A    ","OK ","OK ",    000797.995,    -046.203,    -101.562,    0015.341,    0044.925
"FRM_AIS_EDR_2032.DAT           ",2005-08-14T17:13:50.60 ,"1/0072119625.30402",    0,   40,  274896,"AIS","B1","B1","B0","B0","PISd",0,0,0,0,"B1", 0,15,   0, 0,    0,"AIS","N/A    ","OK ","OK ",    000789.241,    -045.815,    -101.545,    0015.344,    0044.889
"FRM_AIS_EDR_2032.DAT           ",2005-08-14T17:13:58.15 ,"1/0072119633.00465",    0,   41,  274896,"AIS","B1","B1","B0","B0","PISd",0,0,0,0,"B1", 0,15,   0, 0,    0,"AIS","N/A    ","OK ","OK ",    000780.541,    -045.425,    -101.528,    0015.347,    0044.854
"FRM_AIS_EDR_2032.DAT           ",2005-08-14T17:14:05.69 ,"1/0072119640.36064",    0,   42,  274896,"AIS","B1","B1","B0","B0","PISd",0,0,0,0,"B1", 0,15,   0, 0,    0,"AIS","N/A    ","OK ","OK ",    000771.895,    -045.033,    -101.512,    0015.351,    0044.823
"FRM_AIS_EDR_2032.DAT           ",2005-08-14T17:14:13.23 ,"1/0072119648.06128",    0,   43,  274896,"AIS","B1","B1","B0","B0","PISd",0,0,0,0,"B1", 0,15,   0, 0,    0,"AIS","N/A    ","OK ","OK ",    000763.303,    -044.640,    -101.496,    0015.354,    0044.794
"FRM_AIS_EDR_2032.DAT           ",2005-08-14T17:14:20.78 ,"1/0072119655.41727",    0,   44,  274896,"AIS","B1","B1","B0","B0","PISd",0,0,0,0,"B1", 0,15,   0, 0,    0,"AIS","N/A    ","OK ","OK ",    000754.768,    -044.245,    -101.480,    0015.357,    0044.767
"FRM_AIS_EDR_2032.DAT           ",2005-08-14T17:14:28.32 ,"1/0072119663.11790",    0,   45,  274896,"AIS","B1","B1","B0","B0","PISd",0,0,0,0,"B1", 0,15,   0, 0,    0,"AIS","N/A    ","OK ","OK ",    000746.288,    -043.849,    -101.465,    0015.360,    0044.743
"FRM_AIS_EDR_2032.DAT           ",2005-08-14T17:14:35.86 ,"1/0072119670.47390",    0,   46,  274896,"AIS","B1","B1","B0","B0","PISd",0,0,0,0,"B1", 0,15,   0, 0,    0,"AIS","N/A    ","OK ","OK ",    000737.866,    -043.451,    -101.451,    0015.363,    0044.722
"FRM_AIS_EDR_2032.DAT           ",2005-08-14T17:14:43.41 ,"1/0072119678.17453",    0,   47,  274896,"AIS","B1","B1","B0","B0","PISd",0,0,0,0,"B1", 0,15,   0, 0,    0,"AIS","N/A    ","OK ","OK ",    000729.501,    -043.052,    -101.437,    0015.366,    0044.704
"FRM_AIS_EDR_2032.DAT           ",2005-08-14T17:14:50.95 ,"1/0072119685.53052",    0,   48,  274896,"AIS","B1","B1","B0","B0","PISd",0,0,0,0,"B1", 0,15,   0, 0,    0,"AIS","N/A    ","OK ","OK ",    000721.194,    -042.650,    -101.423,    0015.369,    0044.688
"FRM_AIS_EDR_2032.DAT           ",2005-08-14T17:14:58.49 ,"1/0072119693.23116",    0,   49,  274896,"AIS","B1","B1","B0","B0","PISd",0,0,0,0,"B1", 0,15,   0, 0,    0,"AIS","N/A    ","OK ","OK ",    000712.946,    -042.247,    -101.410,    0015.371,    0044.675
"FRM_AIS_EDR_2032.DAT           ",2005-08-14T17:15:06.04 ,"1/0072119700.58715",    0,   50,  274896,"AIS","B1","B1","B0","B0","PISd",0,0,0,0,"B1", 0,15,   0, 0,    0,"AIS","N/A    ","OK ","OK ",    000704.757,    -041.843,    -101.397,    0015.374,    0044.665
"FRM_AIS_EDR_2032.DAT           ",2005-08-14T17:15:13.58 ,"1/0072119708.28778",    0,   51,  274896,"AIS","B1","B1","B0","B0","PISd",0,0,0,0,"B1", 0,15,   0, 0,    0,"AIS","N/A    ","OK ","OK ",    000696.629,    -041.437,    -101.384,    0015.377,    0044.658
"FRM_AIS_EDR_2032.DAT           ",2005-08-14T17:15:21.12 ,"1/0072119715.64378",    0,   52,  274896,"AIS","B1","B1","B0","B0","PISd",0,0,0,0,"B1", 0,15,   0, 0,    0,"AIS","N/A    ","OK ","OK ",    000688.562,    -041.029,    -101.372,    0015.380,    0044.654
"FRM_AIS_EDR_2032.DAT           ",2005-08-14T17:15:28.66 ,"1/0072119723.34441",    0,   53,  274896,"AIS","B1","B1","B0","B0","PISd",0,0,0,0,"B1", 0,15,   0, 0,    0,"AIS","N/A    ","OK ","OK ",    000680.556,    -040.620,    -101.360,    0015.383,    0044.653
"FRM_AIS_EDR_2032.DAT           ",2005-08-14T17:15:36.21 ,"1/0072119731.04504",    0,   54,  274896,"AIS","B1","B1","B0","B0","PISd",0,0,0,0,"B1", 0,15,   0, 0,    0,"AIS","N/A    ","OK ","OK ",    000672.612,    -040.209,    -101.349,    0015.386,    0044.655
"FRM_AIS_EDR_2032.DAT           ",2005-08-14T17:15:43.75 ,"1/0072119738.40103",    0,   55,  274896,"AIS","B1","B1","B0","B0","PISd",0,0,0,0,"B1", 0,15,   0, 0,    0,"AIS","N/A    ","OK ","OK ",    000664.732,    -039.797,    -101.338,    0015.389,    0044.659
"FRM_AIS_EDR_2032.DAT           ",2005-08-14T17:15:51.29 ,"1/0072119746.10167",    0,   56,  274896,"AIS","B1","B1","B0","B0","PISd",0,0,0,0,"B1", 0,15,   0, 0,    0,"AIS","N/A    ","OK ","OK ",    000656.915,    -039.383,    -101.327,    0015.391,    0044.667
"FRM_AIS_EDR_2032.DAT           ",2005-08-14T17:15:58.84 ,"1/0072119753.45766",    0,   57,  274896,"AIS","B1","B1","B0","B0","PISd",0,0,0,0,"B1", 0,15,   0, 0,    0,"AIS","N/A    ","OK ","OK ",    000649.162,    -038.967,    -101.316,    0015.394,    0044.678
"FRM_AIS_EDR_2032.DAT           ",2005-08-14T17:16:06.38 ,"1/0072119761.15829",    0,   58,  274896,"AIS","B1","B1","B0","B0","PISd",0,0,0,0,"B1", 0,15,   0, 0,    0,"AIS","N/A    ","OK ","OK ",    000641.474,    -038.550,    -101.306,    0015.397,    0044.693
"FRM_AIS_EDR_2032.DAT           ",2005-08-14T17:16:13.92 ,"1/0072119768.51429",    0,   59,  274896,"AIS","B1","B1","B0","B0","PISd",0,0,0,0,"B1", 0,15,   0, 0,    0,"AIS","N/A    ","OK ","OK ",    000633.852,    -038.131,    -101.296,    0015.399,    0044.710
"FRM_AIS_EDR_2032.DAT           ",2005-08-14T17:16:21.47 ,"1/0072119776.21492",    0,   60,  274896,"AIS","B1","B1","B0","B0","PISd",0,0,0,0,"B1", 0,15,   0, 0,    0,"AIS","N/A    ","OK ","OK ",    000626.296,    -037.711,    -101.287,    0015.402,    0044.730
"FRM_AIS_EDR_2032.DAT           ",2005-08-14T17:16:29.01 ,"1/0072119783.57091",    0,   61,  274896,"AIS","B1","B1","B0","B0","PISd",0,0,0,0,"B1", 0,15,   0, 0,    0,"AIS","N/A    ","OK ","OK ",    000618.807,    -037.289,    -101.278,    0015.405,    0044.754
"FRM_AIS_EDR_2032.DAT           ",2005-08-14T17:16:36.55 ,"1/0072119791.27155",    0,   62,  274896,"AIS","B1","B1","B0","B0","PISd",0,0,0,0,"B1", 0,15,   0, 0,    0,"AIS","N/A    ","OK ","OK ",    000611.385,    -036.865,    -101.269,    0015.408,    0044.781
"FRM_AIS_EDR_2032.DAT           ",2005-08-14T17:16:44.10 ,"1/0072119798.62754",    0,   63,  274896,"AIS","B1","B1","B0","B0","PISd",0,0,0,0,"B1", 0,15,   0, 0,    0,"AIS","N/A    ","OK ","OK ",    000604.032,    -036.440,    -101.260,    0015.410,    0044.811
"FRM_AIS_EDR_2032.DAT           ",2005-08-14T17:16:51.64 ,"1/0072119806.32817",    0,   64,  274896,"AIS","B1","B1","B0","B0","PISd",0,0,0,0,"B1", 0,15,   0, 0,    0,"AIS","N/A    ","OK ","OK ",    000596.748,    -036.014,    -101.252,    0015.412,    0044.845
"FRM_AIS_EDR_2032.DAT           ",2005-08-14T17:16:59.18 ,"1/0072119814.02881",    0,   65,  274896,"AIS","B1","B1","B0","B0","PISd",0,0,0,0,"B1", 0,15,   0, 0,    0,"AIS","N/A    ","OK ","OK ",    000589.534,    -035.585,    -101.244,    0015.415,    0044.882
"FRM_AIS_EDR_2032.DAT           ",2005-08-14T17:17:06.73 ,"1/0072119821.38480",    0,   66,  274896,"AIS","B1","B1","B0","B0","PISd",0,0,0,0,"B1", 0,15,   0, 0,    0,"AIS","N/A    ","OK ","OK ",    000582.390,    -035.156,    -101.236,    0015.418,    0044.922
"FRM_AIS_EDR_2032.DAT           ",2005-08-14T17:17:14.27 ,"1/0072119829.08543",    0,   67,  274896,"AIS","B1","B1","B0","B0","PISd",0,0,0,0,"B1", 0,15,   0, 0,    0,"AIS","N/A    ","OK ","OK ",    000575.318,    -034.725,    -101.229,    0015.420,    0044.966
"FRM_AIS_EDR_2032.DAT           ",2005-08-14T17:17:21.81 ,"1/0072119836.44143",    0,   68,  274896,"AIS","B1","B1","B0","B0","PISd",0,0,0,0,"B1", 0,15,   0, 0,    0,"AIS","N/A    ","OK ","OK ",    000568.317,    -034.292,    -101.222,    0015.423,    0045.014
"FRM_AIS_EDR_2032.DAT           ",2005-08-14T17:17:29.36 ,"1/0072119844.14206",    0,   69,  274896,"AIS","B1","B1","B0","B0","PISd",0,0,0,0,"B1", 0,15,   0, 0,    0,"AIS","N/A    ","OK ","OK ",    000561.388,    -033.858,    -101.215,    0015.425,    0045.064
"FRM_AIS_EDR_2032.DAT           ",2005-08-14T17:17:36.90 ,"1/0072119851.49805",    0,   70,  274896,"AIS","B1","B1","B0","B0","PISd",0,0,0,0,"B1", 0,15,   0, 0,    0,"AIS","N/A    ","OK ","OK ",    000554.533,    -033.422,    -101.208,    0015.428,    0045.118
"FRM_AIS_EDR_2032.DAT           ",2005-08-14T17:17:44.44 ,"1/0072119859.19869",    0,   71,  274896,"AIS","B1","B1","B0","B0","PISd",0,0,0,0,"B1", 0,15,   0, 0,    0,"AIS","N/A    ","OK ","OK ",    000547.752,    -032.985,    -101.201,    0015.430,    0045.176
"FRM_AIS_EDR_2032.DAT           ",2005-08-14T17:17:51.99 ,"1/0072119866.55468",    0,   72,  274896,"AIS","B1","B1","B0","B0","PISd",0,0,0,0,"B1", 0,15,   0, 0,    0,"AIS","N/A    ","OK ","OK ",    000541.044,    -032.546,    -101.195,    0015.433,    0045.237
"FRM_AIS_EDR_2032.DAT           ",2005-08-14T17:17:59.53 ,"1/0072119874.25531",    0,   73,  274896,"AIS","B1","B1","B0","B0","PISd",0,0,0,0,"B1", 0,15,   0, 0,    0,"AIS","N/A    ","OK ","OK ",    000534.413,    -032.106,    -101.189,    0015.435,    0045.302
"FRM_AIS_EDR_2032.DAT           ",2005-08-14T17:18:07.07 ,"1/0072119881.61131",    0,   74,  274896,"AIS","B1","B1","B0","B0","PISd",0,0,0,0,"B1", 0,15,   0, 0,    0,"AIS","N/A    ","OK ","OK ",    000527.857,    -031.664,    -101.184,    0015.438,    0045.370
"FRM_AIS_EDR_2032.DAT           ",2005-08-14T17:18:14.62 ,"1/0072119889.31194",    0,   75,  274896,"AIS","B1","B1","B0","B0","PISd",0,0,0,0,"B1", 0,15,   0, 0,    0,"AIS","N/A    ","OK ","OK ",    000521.377,    -031.221,    -101.178,    0015.440,    0045.442
"FRM_AIS_EDR_2032.DAT           ",2005-08-14T17:18:22.16 ,"1/0072119897.01257",    0,   76,  274896,"AIS","B1","B1","B0","B0","PISd",0,0,0,0,"B1", 0,15,   0, 0,    0,"AIS","N/A    ","OK ","OK ",    000514.975,    -030.776,    -101.173,    0015.442,    0045.518
"FRM_AIS_EDR_2032.DAT           ",2005-08-14T17:18:29.70 ,"1/0072119904.36857",    0,   77,  274896,"AIS","B1","B1","B0","B0","PISd",0,0,0,0,"B1", 0,15,   0, 0,    0,"AIS","N/A    ","OK ","OK ",    000508.650,    -030.330,    -101.168,    0015.445,    0045.597
"FRM_AIS_EDR_2032.DAT           ",2005-08-14T17:18:37.24 ,"1/0072119912.06920",    0,   78,  274896,"AIS","B1","B1","B0","B0","PISd",0,0,0,0,"B1", 0,15,   0, 0,    0,"AIS","N/A    ","OK ","OK ",    000502.405,    -029.883,    -101.163,    0015.447,    0045.679
"FRM_AIS_EDR_2032.DAT           ",2005-08-14T17:18:44.79 ,"1/0072119919.42519",    0,   79,  274896,"AIS","B1","B1","B0","B0","PISd",0,0,0,0,"B1", 0,15,   0, 0,    0,"AIS","N/A    ","OK ","OK ",    000496.238,    -029.434,    -101.158,    0015.449,    0045.766
"FRM_AIS_EDR_2032.DAT           ",2005-08-14T17:18:52.33 ,"1/0072119927.12582",    0,   80,  274896,"AIS","B1","B1","B0","B0","PISd",0,0,0,0,"B1", 0,15,   0, 0,    0,"AIS","N/A    ","OK ","OK ",    000490.151,    -028.984,    -101.154,    0015.452,    0045.856
"FRM_AIS_EDR_2032.DAT           ",2005-08-14T17:18:59.87 ,"1/0072119934.48182",    0,   81,  274896,"AIS","B1","B1","B0","B0","PISd",0,0,0,0,"B1", 0,15,   0, 0,    0,"AIS","N/A    ","OK ","OK ",    000484.145,    -028.532,    -101.150,    0015.454,    0045.949
"FRM_AIS_EDR_2032.DAT           ",2005-08-14T17:19:07.42 ,"1/0072119942.18245",    0,   82,  274896,"AIS","B1","B1","B0","B0","PISd",0,0,0,0,"B1", 0,15,   0, 0,    0,"AIS","N/A    ","OK ","OK ",    000478.219,    -028.079,    -101.146,    0015.456,    0046.047
"FRM_AIS_EDR_2032.DAT           ",2005-08-14T17:19:14.96 ,"1/0072119949.53844",    0,   83,  274896,"AIS","B1","B1","B0","B0","PISd",0,0,0,0,"B1", 0,15,   0, 0,    0,"AIS","N/A    ","OK ","OK ",    000472.376,    -027.625,    -101.142,    0015.459,    0046.148
"FRM_AIS_EDR_2032.DAT           ",2005-08-14T17:19:22.50 ,"1/0072119957.23908",    0,   84,  274896,"AIS","B1","B1","B0","B0","PISd",0,0,0,0,"B1", 0,15,   0, 0,    0,"AIS","N/A    ","OK ","OK ",    000466.615,    -027.169,    -101.138,    0015.461,    0046.252
"FRM_AIS_EDR_2032.DAT           ",2005-08-14T17:19:30.05 ,"1/0072119964.59507",    0,   85,  274896,"AIS","B1","B1","B0","B0","PISd",0,0,0,0,"B1", 0,15,   0, 0,    0,"AIS","N/A    ","OK ","OK ",    000460.937,    -026.712,    -101.135,    0015.463,    0046.361
"FRM_AIS_EDR_2032.DAT           ",2005-08-14T17:19:37.59 ,"1/0072119972.29570",    0,   86,  274896,"AIS","B1","B1","B0","B0","PISd",0,0,0,0,"B1", 0,15,   0, 0,    0,"AIS","N/A    ","OK ","OK ",    000455.343,    -026.254,    -101.131,    0015.466,    0046.473
"FRM_AIS_EDR_2032.DAT           ",2005-08-14T17:19:45.13 ,"1/0072119979.65170",    0,   87,  274896,"AIS","B1","B1","B0","B0","PISd",0,0,0,0,"B1", 0,15,   0, 0,    0,"AIS","N/A    ","OK ","OK ",    000449.834,    -025.794,    -101.128,    0015.468,    0046.588
"FRM_AIS_EDR_2032.DAT           ",2005-08-14T17:19:52.68 ,"1/0072119987.35233",    0,   88,  274896,"AIS","B1","B1","B0","B0","PISd",0,0,0,0,"B1", 0,15,   0, 0,    0,"AIS","N/A    ","OK ","OK ",    000444.409,    -025.333,    -101.125,    0015.470,    0046.708
"FRM_AIS_EDR_2032.DAT           ",2005-08-14T17:20:00.22 ,"1/0072119995.05296",    0,   89,  274896,"AIS","B1","B1","B0","B0","PISd",0,0,0,0,"B1", 0,15,   0, 0,    0,"AIS","N/A    ","OK ","OK ",    000439.070,    -024.871,    -101.122,    0015.472,    0046.831
"FRM_AIS_EDR_2032.DAT           ",2005-08-14T17:20:07.76 ,"1/0072120002.40896",    0,   90,  274896,"AIS","B1","B1","B0","B0","PISd",0,0,0,0,"B1", 0,15,   0, 0,    0,"AIS","N/A    ","OK ","OK ",    000433.817,    -024.407,    -101.120,    0015.474,    0046.957